Regional Weather Roundup
Issued by NWS

Home | Current Version | Previous Version | Graphics & Text | Print | Product List | Glossary On
Versions: 1 2 3 4 5 6 7 8 9 10 11 12 13 14 15 16 17 18 19 20 21 22 23 24 25 26 27 28 29 30 31 32 33 34 35 36 37 38 39 40 41 42 43 44 45 46 47 48 49 50
000
ASUS44 KMEG 200300
RWRTN
TENNESSEE HOURLY STATE WEATHER ROUNDUP
NATIONAL WEATHER SERVICE MEMPHIS TN
900 PM CST FRI DEC 19 2014

TNZ002-004-019-021-049-052-054-088>092-200400-
WEST TENNESSEE

CITY           SKY/WX    TMP DP  RH WIND       PRES   REMARKS
MEMPHIS INTL   CLOUDY    43  33  68 E7        30.23S
NWS MEMPHIS      N/A     41 N/A N/A MISG        N/A
JACKSON        CLOUDY    40  32  73 CALM      30.24R
DYERSBURG      CLOUDY    39  23  52 NE5       30.26S
UNION CITY     PTCLDY    36  28  75 NE3       30.24R
PARIS          CLOUDY    36  28  75 NE6       30.24R WCI  31
LEXINGTON      CLOUDY    39  28  65 E6        30.21S WCI  35
SAVANNAH       CLOUDY    39  28  65 CALM      30.24R
$$

TNZ008-025-027-028-033-062-065-066-200400-
NORTH MIDDLE TENNESSEE

CITY           SKY/WX    TMP DP  RH WIND       PRES   REMARKS
NASHVILLE      CLOUDY    37  28  70 NE5       30.24S WCI  33
CLARKSVILLE    CLOUDY    36  28  73 N6        30.25R WCI  31
COOKEVILLE     CLEAR     36  28  75 CALM      30.19R
CROSSVILLE     CLOUDY    35  26  69 NE3       30.18R
$$

TNZ061-075-076-078-094-096-097-200400-
SOUTH MIDDLE TENNESSEE

CITY           SKY/WX    TMP DP  RH WIND       PRES   REMARKS
FAYETTEVILLE   CLEAR     36  27  69 MISG      30.18F
TULLAHOMA      CLEAR     36  27  69 NE3       30.21S
WINCHESTER     CLOUDY    36  28  75 N5        30.20F WCI  32
SHELBYVILLE    CLOUDY    37  30  75 NE3       30.22S
$$

TNZ017-018-042-046-047-200400-
NORTHEAST TENNESSEE

CITY           SKY/WX    TMP DP  RH WIND       PRES   REMARKS
TRI CITIES     MOCLDY    32  26  78 CALM      30.16F
ELIZABETHTON   CLEAR     28  25  86 CALM      30.15F
$$

TNZ012-013-036-069-073-074-200400-
CENTRAL EAST TENNESSEE

CITY           SKY/WX    TMP DP  RH WIND       PRES   REMARKS
KNOXVILLE      CLOUDY    38  27  64 N5        30.17R WCI  34
OAK RIDGE      MOCLDY    39  27  62 NE3       30.19S
GATLINBURG     CLEAR     34  28  80 CALM      30.17R
$$

TNZ083-085-099-200400-
SOUTHEAST TENNESSEE

CITY           SKY/WX    TMP DP  RH WIND       PRES   REMARKS
CHATTANOOGA    CLOUDY    43  29  57 NW5       30.20R
$$

SKY/WX REPORTED AS FAIR MEANS FEW OR NO CLOUDS BELOW
12 THOUSAND FEET.




USA.gov is the U.S. government's official web portal to all federal, state and local government web resources and services.